Probability
26 23 13 6 6 6 6 3 3 3 3 3 3 3 3 0 0 0 0 0 0 0 0 0 0 0 3 0 3 0 0 0 0 0 0 0 0 0 0 0 0 0 0
26 23 13 10 10 10 3 3 3 3 3 3 3 3 3 0 0 0 0 0 0 0 0 0 0 0 0 0 0 0 0 0 0 0 0 0 0 0 0 0 0 0 0
23 23 13 10 10 10 10 10 3 3 3 3 3 3 0 0 0 0 0 0 0 0 0 0 0 0 0 0 0 0 0 0 0 0 0 0 0 0 0 0 0 0 0
26 23 16 10 13 13 10 10 6 3 3 3 3 3 0 0 0 0 0 0 0 0 0 0 0 0 0 0 0 0 0 0 0 0 0 0 0 0 0 0 0 0 0
26 23 19 16 16 16 13 10 10 3 3 3 3 3 0 0 0 0 0 0 0 0 0 0 0 0 0 0 0 0 0 0 0 0 0 0 0 0 0 0 0 0 0
26 26 16 13 16 16 13 13 13 13 3 3 3 3 3 0 0 0 0 0 0 0 0 0 0 0 0 0 0 0 0 0 0 0 0 0 0 0 0 0 0 0 0
29 23 16 13 16 16 10 13 13 13 13 13 6 6 6 6 0 0 0 0 0 0 0 0 0 0 0 0 0 0 0 0 0 0 0 0 0 0 0 0 0 0 0
26 23 23 19 13 16 16 19 16 16 16 10 10 6 6 6 0 0 0 0 0 0 0 0 0 0 0 0 0 0 0 0 0 0 0 0 0 0 0 0 0 0 0
19 16 13 16 19 19 19 26 19 23 19 23 13 10 6 3 0 0 0 0 0 0 0 0 0 0 0 0 0 0 0 0 0 0 0 0 0 0 0 0 0 0 0
19 19 19 23 19 23 23 35 26 32 19 26 19 19 10 10 3 0 0 0 0 0 0 0 0 0 0 0 0 0 0 0 0 0 0 0 0 0 0 0 0 0 0
23 19 23 29 32 32 42 48 39 26 23 23 26 26 26 23 0 0 0 0 0 0 0 0 0 0 0 0 0 0 0 0 0 0 0 0 0 0 0 0 0 0 0
23 29 26 26 19 16 42 48 39 35 32 29 32 29 19 16 0 0 0 0 0 0 0 0 0 0 0 0 0 0 0 0 0 0 0 0 0 0 0 0 0 0 0
45 35 29 29 26 29 29 32 35 39 23 10 19 16 6 10 10 0 0 0 0 0 0 0 0 0 0 0 0 0 0 0 0 0 0 0 0 0 6 3 3 0 0
52 45 35 32 26 26 23 26 19 16 10 10 10 10 3 19 16 0 0 0 0 0 0 0 0 0 0 0 0 0 0 0 0 0 0 0 0 0 0 0 0 0 0
61 42 26 23 16 35 29 19 16 13 13 13 13 13 10 10 0 0 0 0 0 0 0 0 0 0 0 0 0 0 0 0 0 0 0 0 0 0 0 0 0 0 0
48 39 13 10 16 16 13 13 3 0 0 0 0 0 0 0 0 0 0 0 0 0 0 0 0 0 0 0 0 0 0 3 0 3 0 0 0 0 0 0 0 0 0
58 58 26 10 10 13 13 13 13 0 0 0 0 0 0 0 0 0 0 0 0 0 0 0 0 0 0 0 0 0 0 6 6 3 0 0 0 0 0 0 0 0 0
45 32 35 29 26 13 10 13 13 13 10 6 0 0 0 0 0 0 0 0 0 0 0 0 0 0 0 3 0 0 0 3 6 10 3 0 0 0 0 0 0 0 0
39 26 29 23 16 10 13 6 6 10 13 10 10 0 0 0 0 0 0 0 0 0 0 0 0 0 0 0 0 0 0 0 0 10 3 3 0 0 0 0 0 0 0
48 13 3 16 0 0 3 3 3 3 0 0 3 3 0 0 0 0 0 0 0 0 0 0 0 0 3 0 3 3 0 0 3 3 3 6 0 0 0 0 0 0 0
10 6 0 0 3 0 3 3 3 3 0 0 0 0 0 0 0 0 0 0 0 0 0 0 0 0 6 10 0 0 3 0 0 3 0 3 0 0 0 0 0 0 0
3 3 0 0 3 0 0 0 0 0 0 0 0 0 0 0 0 0 0 0 0 3 3 3 3 0 3 3 0 0 0 0 0 0 3 0 0 0 0 0 0 0 0
3 0 0 0 0 0 0 0 0 0 0 0 0 0 0 0 0 0 0 3 0 0 3 6 0 0 0 0 0 0 0 0 0 0 0 0 0 0 0 0 0 0 0
3 0 0 0 0 0 0 0 0 0 0 0 0 0 0 0 0 0 0 0 0 3 3 3 0 0 0 0 0 0 0 0 0 0 0 0 0 0 0 0 0 0 0
0 0 0 0 0 0 0 0 0 0 0 0 0 0 0 0 0 0 0 0 0 0 3 3 6 3 0 0 0 0 0 0 0 0 0 0 0 0 0 0 0 0 0
0 0 0 0 0 0 0 0 0 0 0 0 0 0 0 0 0 0 0 0 0 0 0 3 3 0 3 0 0 0 0 0 0 0 0 0 0 0 0 0 0 0 0
Height
5847 5847 5848 5848 5849 5849 5849 5849 5848 5848 5847 5847 5846 5845 5844 5843 5841 5840 5839 5837 5835 5834 5832 5831 5829 5827 5826 5824 5823 5822 5821 5820 5819 5819 5818 5818 5818 5818 5819 5819 5820 5820 5821
5846 5846 5847 5848 5848 5848 5848 5848 5847 5847 5846 5845 5844 5843 5842 5841 5840 5838 5837 5835 5833 5831 5829 5827 5825 5823 5822 5820 5818 5817 5816 5814 5814 5813 5812 5812 5811 5811 5811 5811 5811 5812 5813
5845 5845 5846 5846 5847 5847 5846 5846 5846 5845 5845 5844 5843 5842 5840 5839 5837 5836 5834 5832 5830 5828 5826 5824 5822 5820 5818 5816 5814 5812 5810 5809 5808 5807 5805 5805 5804 5803 5803 5802 5802 5803 5803
5843 5844 5844 5845 5845 5845 5845 5844 5844 5843 5843 5842 5841 5839 5838 5837 5835 5833 5831 5829 5827 5825 5823 5821 5818 5816 5814 5811 5809 5807 5805 5803 5802 5800 5799 5797 5796 5795 5795 5794 5794 5793 5794
5841 5842 5842 5842 5843 5843 5842 5842 5842 5841 5840 5839 5838 5837 5835 5834 5832 5830 5828 5826 5824 5822 5819 5817 5814 5812 5809 5807 5804 5802 5800 5797 5795 5793 5792 5790 5789 5787 5787 5786 5785 5784 5784
5839 5839 5840 5840 5840 5840 5840 5839 5839 5838 5837 5836 5835 5834 5832 5830 5828 5826 5824 5822 5820 5818 5815 5813 5810 5807 5805 5802 5799 5796 5794 5791 5789 5786 5784 5783 5781 5779 5778 5777 5776 5775 5775
5836 5836 5837 5837 5837 5836 5836 5836 5835 5835 5834 5833 5831 5830 5828 5826 5824 5822 5820 5818 5816 5813 5810 5808 5805 5802 5800 5797 5793 5791 5788 5785 5782 5780 5778 5775 5773 5771 5770 5768 5767 5766 5765
5833 5833 5833 5833 5833 5833 5832 5832 5831 5830 5829 5828 5827 5825 5824 5822 5820 5817 5815 5813 5810 5808 5805 5802 5800 5797 5793 5791 5788 5785 5782 5779 5776 5773 5771 5768 5765 5763 5761 5760 5758 5757 5755
5829 5829 5829 5829 5829 5828 5828 5827 5827 5826 5825 5823 5822 5820 5819 5817 5815 5812 5810 5808 5805 5803 5800 5797 5794 5791 5788 5784 5781 5778 5775 5772 5769 5766 5763 5760 5758 5755 5753 5751 5749 5747 5746
5825 5825 5825 5824 5824 5824 5823 5823 5822 5821 5819 5818 5817 5815 5813 5811 5809 5807 5805 5802 5800 5797 5794 5791 5788 5785 5781 5778 5775 5772 5768 5765 5762 5759 5756 5753 5750 5747 5744 5742 5739 5737 5735
5820 5820 5819 5819 5819 5819 5818 5817 5816 5815 5814 5813 5811 5809 5807 5805 5803 5801 5798 5796 5793 5790 5787 5784 5781 5778 5774 5771 5767 5764 5761 5757 5754 5751 5748 5745 5742 5739 5736 5732 5729 5727 5724
5814 5813 5813 5813 5813 5812 5812 5811 5810 5809 5808 5806 5805 5803 5801 5798 5796 5794 5792 5789 5786 5783 5780 5777 5774 5770 5767 5763 5760 5756 5753 5749 5746 5743 5740 5736 5733 5730 5727 5724 5720 5717 5714
5808 5808 5808 5807 5806 5806 5805 5805 5804 5803 5801 5800 5798 5796 5794 5792 5789 5787 5784 5781 5778 5775 5772 5769 5766 5762 5758 5755 5751 5747 5744 5740 5737 5734 5730 5727 5724 5720 5717 5714 5711 5707 5705
5801 5801 5801 5801 5800 5799 5798 5798 5797 5796 5794 5792 5790 5788 5786 5784 5782 5779 5776 5773 5770 5767 5764 5761 5757 5753 5749 5746 5742 5738 5734 5731 5727 5724 5721 5717 5714 5711 5707 5704 5701 5698 5695
5795 5794 5794 5794 5793 5792 5791 5791 5790 5788 5786 5785 5782 5780 5778 5775 5773 5770 5767 5764 5761 5758 5755 5752 5748 5744 5740 5736 5732 5729 5725 5721 5717 5714 5710 5707 5704 5701 5697 5694 5691 5688 5685
5788 5787 5787 5786 5786 5785 5784 5783 5781 5780 5778 5776 5774 5771 5769 5766 5763 5761 5758 5755 5751 5748 5744 5741 5738 5734 5730 5726 5722 5718 5714 5710 5707 5703 5700 5696 5693 5690 5687 5684 5681 5678 5675
5781 5780 5779 5779 5778 5777 5776 5774 5773 5771 5770 5767 5765 5762 5760 5757 5754 5751 5748 5745 5741 5737 5734 5730 5727 5723 5719 5715 5711 5707 5703 5699 5695 5692 5689 5686 5683 5679 5676 5674 5671 5668 5666
5773 5772 5771 5770 5769 5768 5767 5765 5764 5762 5761 5758 5756 5753 5751 5748 5745 5741 5738 5734 5731 5727 5723 5719 5715 5711 5707 5703 5699 5695 5691 5687 5684 5680 5677 5674 5671 5668 5666 5663 5660 5658 5656
5764 5764 5763 5762 5760 5759 5757 5756 5754 5752 5750 5748 5745 5743 5740 5737 5734 5730 5726 5723 5719 5715 5711 5707 5703 5699 5696 5691 5687 5683 5679 5675 5672 5669 5666 5663 5660 5658 5655 5653 5651 5648 5646
5755 5755 5754 5752 5751 5749 5748 5746 5744 5742 5739 5737 5734 5731 5728 5725 5721 5718 5714 5710 5706 5703 5699 5695 5691 5687 5683 5679 5675 5671 5667 5663 5660 5657 5654 5651 5649 5647 5645 5642 5640 5638 5636
5746 5745 5744 5743 5741 5739 5737 5735 5733 5730 5728 5725 5722 5719 5716 5712 5709 5705 5701 5697 5693 5690 5686 5682 5677 5674 5670 5666 5663 5659 5655 5651 5648 5645 5643 5640 5638 5636 5634 5632 5630 5628 5626
5736 5735 5733 5732 5730 5728 5725 5723 5721 5718 5715 5712 5709 5706 5703 5699 5696 5692 5688 5685 5681 5676 5672 5668 5664 5660 5657 5653 5650 5646 5642 5639 5636 5633 5631 5629 5627 5625 5623 5621 5620 5618 5616
5725 5724 5722 5721 5719 5716 5714 5711 5708 5706 5703 5699 5696 5693 5690 5686 5683 5679 5675 5671 5667 5663 5659 5655 5651 5647 5644 5640 5637 5633 5630 5627 5624 5621 5619 5618 5616 5614 5612 5611 5610 5608 5606
5714 5713 5711 5709 5707 5705 5702 5699 5696 5693 5689 5686 5683 5679 5676 5672 5668 5665 5661 5657 5653 5649 5645 5641 5637 5634 5630 5627 5624 5621 5618 5615 5612 5610 5608 5606 5605 5603 5602 5601 5600 5598 5597
5703 5701 5699 5697 5694 5692 5689 5686 5683 5679 5676 5673 5669 5666 5662 5658 5654 5650 5646 5643 5639 5635 5632 5628 5624 5620 5617 5614 5611 5608 5606 5603 5601 5598 5597 5595 5594 5592 5592 5590 5589 5588 5587
5691 5688 5686 5684 5681 5678 5675 5672 5669 5666 5663 5659 5656 5652 5649 5645 5641 5637 5633 5629 5626 5622 5618 5614 5611 5607 5604 5601 5598 5596 5594 5591 5589 5588 5586 5585 5583 5582 5581 5580 5580 5579 5578
Wind_Speed
2 2 2 3 3 3 4 4 5 6 7 8 9 9 10 10 11 11 12 13 13 14 14 15 16 16 17 18 18 19 20 20 21 22 23 24 24 25 26 27 28 30 31
3 3 3 4 4 4 5 5 6 7 8 9 9 10 10 11 11 12 13 13 14 15 16 16 17 17 18 18 19 19 20 21 22 22 24 24 25 26 27 28 29 30 31
5 5 5 5 6 6 6 7 8 8 9 10 10 11 11 11 12 13 14 14 15 16 16 17 17 18 18 19 19 20 21 21 22 23 24 25 26 27 27 28 30 31 32
6 6 7 7 7 8 8 8 9 10 10 11 12 12 13 13 13 14 15 15 16 16 17 18 18 19 19 20 20 21 22 22 23 23 24 25 26 26 27 28 29 31 32
8 8 8 8 9 9 9 10 10 11 12 12 13 14 14 14 15 16 16 17 17 18 18 19 19 20 21 21 21 22 22 23 24 24 25 25 26 27 28 28 29 29 30
9 9 9 10 10 11 11 11 12 12 13 14 15 15 16 16 16 17 18 18 19 19 20 20 20 21 22 22 23 23 23 24 24 25 25 25 26 27 28 29 29 29 30
11 11 11 11 12 12 13 13 14 14 15 16 16 17 17 18 18 18 19 19 20 21 21 22 22 22 23 23 24 25 25 25 25 25 25 25 26 27 28 28 29 30 30
12 13 13 13 13 14 15 15 16 16 17 17 18 18 19 19 20 20 21 21 21 22 23 23 24 24 25 25 25 25 25 25 25 25 25 26 26 27 28 29 30 30 31
14 14 14 15 15 16 16 17 17 18 19 19 19 20 20 21 21 22 22 22 23 24 24 25 26 26 26 26 26 26 26 26 26 26 26 27 27 28 29 30 31 31 31
16 16 16 16 17 18 18 19 19 20 20 21 21 22 22 23 23 23 24 24 25 25 26 26 27 27 28 27 27 27 27 28 28 28 27 28 28 29 30 31 31 32 32
17 18 18 18 19 19 20 20 21 21 22 22 23 23 24 24 25 25 25 26 26 27 27 28 28 28 29 29 29 29 29 29 29 29 29 29 29 30 30 31 32 32 32
19 20 20 20 21 21 21 22 23 23 24 24 25 25 25 26 26 26 27 28 28 29 29 29 30 29 29 30 30 31 31 31 31 30 30 31 31 31 31 31 32 32 32
21 21 22 22 22 22 22 23 24 25 26 26 26 27 27 27 27 28 29 29 30 30 30 31 31 32 32 32 32 32 33 33 33 32 32 32 32 32 32 32 32 32 32
22 23 23 23 23 23 24 25 26 26 27 28 28 28 28 29 29 29 30 30 31 31 32 32 33 34 34 34 34 34 34 34 34 34 33 33 33 33 32 32 32 32 32
23 24 24 24 25 25 26 27 28 29 29 30 29 29 30 30 31 31 32 32 33 33 33 33 34 35 36 36 36 36 36 35 34 34 34 33 33 33 33 33 33 32 32
24 24 25 25 26 27 28 28 29 29 30 31 31 31 32 33 33 34 34 34 35 36 36 36 37 37 37 37 37 37 36 36 36 35 34 34 34 34 33 33 33 32 31
26 27 27 27 27 28 29 29 30 30 31 31 32 33 33 34 34 35 36 37 38 38 38 39 39 39 39 39 38 38 37 37 36 36 35 35 35 34 33 32 32 31 30
28 28 29 29 30 31 32 32 32 32 32 33 33 34 35 36 36 37 38 39 39 40 40 40 40 40 40 40 40 39 38 37 37 36 36 35 35 34 33 32 31 30 30
29 29 29 30 31 31 33 34 34 34 35 35 36 36 36 38 39 39 40 40 41 41 41 42 42 41 41 40 40 40 39 38 37 36 36 36 35 34 33 32 31 31 30
30 30 31 32 33 34 34 35 36 36 36 37 38 39 39 39 40 41 42 42 43 43 43 43 42 42 41 40 40 40 39 38 37 37 36 36 35 34 33 32 31 31 30
31 32 32 33 34 35 36 37 38 38 39 39 40 40 41 41 42 43 43 44 44 44 44 44 43 42 41 40 40 39 39 39 38 37 37 36 35 34 33 32 31 30 30
33 34 34 35 36 36 38 39 40 40 41 41 41 42 43 43 43 44 44 44 44 44 44 44 43 42 41 40 40 39 39 38 38 37 36 35 34 34 33 32 31 31 31
34 35 36 38 39 39 40 40 41 42 43 43 43 43 43 44 44 45 45 45 45 45 45 44 44 42 41 40 40 40 39 38 37 36 35 34 33 32 31 30 31 31 30
36 37 37 39 39 40 42 43 43 43 44 45 44 44 45 45 45 46 46 46 45 45 45 45 44 43 42 41 41 40 39 38 36 36 35 34 34 32 31 31 30 30 29
39 40 41 42 42 43 43 43 44 44 45 45 45 46 46 46 45 45 45 45 45 45 45 44 43 42 41 40 40 38 37 36 35 35 34 33 33 32 30 30 29 29 28
41 41 42 43 44 44 44 44 44 45 45 45 46 46 45 45 45 46 46 45 45 45 44 43 42 40 40 39 38 37 36 35 34 34 33 32 31 30 29 29 29 29 29
Wind_Direction
261 277 281 287 295 307 315 319 322 325 329 330 330 329 329 329 327 325 324 322 320 318 316 313 311 308 306 304 299 295 291 287 285 282 280 278 276 274 273 271 268 265 263
262 272 284 291 296 302 310 315 319 323 326 327 328 327 327 327 326 325 323 322 321 320 318 317 314 311 309 307 304 300 296 293 289 285 283 281 280 278 277 275 272 269 266
266 273 280 287 294 299 302 307 311 317 321 323 324 325 324 324 323 322 322 322 322 321 320 318 316 314 311 309 308 304 301 298 294 289 286 285 283 281 279 278 275 272 269
267 274 279 284 290 293 296 301 307 312 314 317 319 320 320 319 319 319 320 321 321 321 320 319 317 316 314 312 309 306 304 300 297 293 290 288 285 283 282 281 278 276 273
269 275 281 285 287 290 293 297 302 307 310 312 315 317 317 317 318 319 319 320 320 320 320 319 319 317 315 314 312 309 307 304 300 296 293 290 287 285 284 283 281 278 275
270 274 280 284 287 289 292 295 298 302 306 309 311 315 315 316 316 317 318 318 318 318 318 318 317 317 316 315 313 310 308 307 304 301 297 293 290 288 287 286 284 281 278
273 274 278 283 286 288 289 292 296 300 303 307 308 311 313 313 313 315 316 316 317 316 316 317 316 315 314 313 312 310 309 308 306 305 301 297 294 291 290 288 286 284 281
275 276 278 281 284 286 287 290 293 297 300 303 306 309 311 311 311 312 313 313 314 315 315 315 315 314 314 313 312 310 309 308 307 306 304 301 298 295 293 291 288 287 285
277 277 279 281 284 286 288 290 292 295 298 301 303 305 307 308 309 309 311 312 313 313 314 314 314 314 313 313 312 310 309 308 307 306 305 302 300 298 296 294 291 288 287
278 277 279 280 282 285 287 289 291 294 296 299 301 303 304 305 306 307 309 310 311 311 312 311 312 312 312 311 310 310 309 308 307 306 305 303 301 299 297 296 294 291 289
277 277 277 279 282 284 286 287 290 293 295 297 299 300 302 303 305 306 307 308 309 310 310 309 310 310 310 309 309 308 308 307 307 306 305 304 302 300 298 297 296 293 290
278 278 278 280 282 283 286 288 290 293 295 296 297 298 300 302 303 304 305 307 308 309 309 309 309 309 309 309 308 307 306 306 306 305 304 304 302 300 298 297 296 295 293
277 279 280 280 281 281 284 288 290 292 294 295 296 297 298 299 301 303 304 305 305 307 307 307 308 309 308 307 306 306 305 305 304 303 302 302 301 300 298 298 297 295 294
276 277 278 279 280 282 286 288 290 291 293 294 294 295 297 299 300 301 302 303 304 304 305 305 306 307 307 307 306 305 305 304 303 302 301 300 299 299 297 297 296 294 292
277 278 278 279 281 283 285 286 289 291 292 293 293 295 297 299 299 300 302 302 303 304 304 304 305 305 305 305 305 305 304 303 301 301 300 299 298 298 297 297 296 294 292
278 277 278 279 280 281 283 285 287 290 292 294 294 295 297 298 299 300 301 302 303 304 304 304 304 304 304 305 305 304 303 302 301 300 300 300 299 297 296 296 296 294 292
279 279 279 279 279 281 283 286 288 290 291 294 295 296 296 297 299 300 301 301 302 302 303 303 303 303 304 304 304 304 303 301 300 298 298 299 298 297 295 296 295 294 292
279 279 279 279 281 283 284 286 288 290 292 293 294 295 296 297 298 299 300 301 301 301 301 302 302 302 302 303 303 302 301 299 298 298 297 297 297 296 294 293 293 293 291
278 279 280 280 282 284 286 287 289 291 292 293 293 294 296 297 298 298 299 300 300 301 301 302 302 302 302 301 301 301 299 298 296 295 295 295 295 294 293 292 292 292 290
278 279 280 282 283 285 287 289 290 291 292 293 294 295 296 297 297 297 298 299 300 300 301 302 302 302 302 301 300 299 298 297 294 292 293 294 292 291 291 291 292 290 288
279 281 282 283 285 286 286 288 289 290 291 292 294 295 296 296 297 298 299 300 301 301 301 301 302 301 300 300 300 298 296 295 293 291 291 292 290 289 288 289 289 289 288
281 282 282 284 286 288 289 289 289 291 291 292 294 294 295 296 296 297 298 299 300 300 300 300 300 300 299 298 297 296 295 294 292 291 290 290 290 287 287 286 286 288 287
281 282 284 285 286 287 288 290 291 293 293 292 294 294 295 295 295 296 296 297 298 298 299 299 299 298 296 296 295 294 295 294 291 289 290 290 288 285 285 284 285 286 285
284 286 286 287 287 288 288 290 291 292 293 294 293 293 294 295 295 296 296 297 298 298 298 298 299 298 296 295 294 294 294 293 290 289 289 287 286 283 282 282 283 284 282
285 286 288 288 289 289 290 290 291 291 292 293 293 294 295 295 296 296 297 298 298 298 298 298 297 297 295 294 293 291 290 289 287 287 286 286 285 283 281 281 281 280 280
286 287 288 289 289 290 290 290 290 291 292 293 294 294 295 296 296 296 296 297 298 298 297 297 296 295 294 293 292 290 288 287 286 286 285 285 284 281 279 279 279 278 277